Location: Wien
(48.2082°N, 16.3738°E)
Time: 12:07:01
(UTC+02:00)

Tiros 1 despin weight - Pass Details

Date: 12 September 2024
Orbit: 573 x 615 km, 48.2° (Epoch: 06 October)

Event Time Altitude Azimuth Distance (km) Brightness Sun altitude
Rises 05:18:36 0° 223° (SW) 2,872 - -12.0°
Reaches altitude 10° 05:21:02 10° 214° (SW) 1,973 - -11.6°
Exits shadow 05:21:07 10° 214° (SSW) 1,944 ? -11.6°
Maximum altitude 05:25:09 35° 149° (SSE) 1,011 ? -11.0°
Drops below altitude 10° 05:29:18 10° 84° (E) 1,985 ? -10.3°
Sets 05:31:45 0° 76° (ENE) 2,891 ? -9.9°
